,,PA_Meas_PMT16A,,PR_Meas_QMR101_102,,RH_Meas_QMH101,,SR_Meas_QMS101,,TA_Meas_QMH101,,GenWind,,GenWind,
time,status,PA,status,PR,status,RH,status,SR,status,TA,status,DirAvg,status,SpdAvg,
2010-09-15, 00:00:04,VALID,917.708,VALID,0,VALID,83.5069,VALID,0,VALID,20.6179,VALID,354,VALID,0.421094,
2010-09-15, 00:01:04,VALID,917.707,VALID,0,VALID,83.5908,VALID,0.107441,VALID,20.6358,VALID,354,VALID,0.219531,
2010-09-15, 00:02:04,VALID,917.67,VALID,0,VALID,83.3925,VALID,0.107441,VALID,20.6748,VALID,354,VALID,0,
2010-09-15, 00:03:04,VALID,917.661,VALID,0,VALID,84.6199,VALID,0,VALID,20.7154,VALID,354,VALID,0.0015625,
2010-09-15, 00:04:04,VALID,917.674,VALID,0,VALID,83.9109,VALID,0.107441,VALID,20.6553,VALID,354,VALID,0.38125,
2010-09-15, 00:05:04,VALID,917.685,VALID,0,VALID,83.8347,VALID,0,VALID,20.6179,VALID,354,VALID,0.310156,
2010-09-15, 00:06:04,VALID,917.638,VALID,0,VALID,84.2311,VALID,0,VALID,20.5594,VALID,354,VALID,0.151562,
2010-09-15, 00:07:04,VALID,917.632,VALID,0,VALID,84.719,VALID,0,VALID,20.5383,VALID,354,VALID,0.353906,
2010-09-15, 00:08:04,VALID,917.602,VALID,0,VALID,85.1536,VALID,0.107441,VALID,20.4993,VALID,354,VALID,0.611719,
2010-09-15, 00:09:04,VALID,917.585,VALID,0,VALID,85.5881,VALID,0.107441,VALID,20.4408,VALID,354,VALID,0.823438,
2010-09-15, 00:10:04,VALID,917.564,VALID,0,VALID,86.0836,VALID,0.107441,VALID,20.4033,VALID,354,VALID,0.50625,
2010-09-15, 00:11:04,VALID,917.562,VALID,0,VALID,86.2361,VALID,0.107441,VALID,20.3628,VALID,354,VALID,0.395703,
2010-09-15, 00:12:04,VALID,917.54,VALID,0,VALID,86.2056,VALID,0.107441,VALID,20.3838,VALID,354,VALID,0.400781,
2010-09-15, 00:13:04,VALID,917.55,VALID,0,VALID,86.3885,VALID,0.107441,VALID,20.3628,VALID,354,VALID,0.472656,
2010-09-15, 00:14:04,VALID,917.541,VALID,0,VALID,86.4114,VALID,0.107441,VALID,20.3433,VALID,354,VALID,0.423438,
2010-09-15, 00:15:04,VALID,917.548,VALID,0,VALID,86.2589,VALID,0.107441,VALID,20.3433,VALID,354,VALID,0.561328,
2010-09-15, 00:16:04,VALID,917.523,VALID,0,VALID,86.3733,VALID,0,VALID,20.3643,VALID,354,VALID,0.458203,
2010-09-15, 00:17:04,VALID,917.538,VALID,0,VALID,86.541,VALID,0.107441,VALID,20.3838,VALID,354,VALID,0,
2010-09-15, 00:18:04,VALID,917.547,VALID,0,VALID,86.7468,VALID,0,VALID,20.3433,VALID,354,VALID,0,
2010-09-15, 00:19:04,VALID,917.499,VALID,0,VALID,87.2729,VALID,0,VALID,20.2653,VALID,354,VALID,0.00117188,
2010-09-15, 00:20:04,VALID,917.514,VALID,0,VALID,87.8675,VALID,0.107441,VALID,20.2278,VALID,354,VALID,0.535156,
2010-09-15, 00:21:04,VALID,917.504,VALID,0,VALID,87.4406,VALID,0.107441,VALID,20.3253,VALID,354,VALID,0.486719,
2010-09-15, 00:22:04,VALID,917.493,VALID,0,VALID,86.8307,VALID,0,VALID,20.4618,VALID,354,VALID,0.346484,
2010-09-15, 00:23:04,VALID,917.497,VALID,0,VALID,86.2285,VALID,0.107441,VALID,20.5399,VALID,354,VALID,0.154687,
2010-09-15, 00:24:04,VALID,917.488,VALID,0,VALID,86.3581,VALID,0.107441,VALID,20.5399,VALID,354,VALID,0.182812,
2010-09-15, 00:25:04,VALID,917.474,VALID,0,VALID,86.5715,VALID,0.107441,VALID,20.5399,VALID,354,VALID,0.257422,
2010-09-15, 00:26:04,VALID,917.436,VALID,0,VALID,86.7773,VALID,0,VALID,20.5399,VALID,354,VALID,0,
2010-09-15, 00:27:04,VALID,917.399,VALID,0,VALID,86.7621,VALID,0,VALID,20.5204,VALID,354,VALID,0.726953,
2010-09-15, 00:28:04,VALID,917.373,VALID,0,VALID,87.0365,VALID,0.107441,VALID,20.4018,VALID,354,VALID,1.1625,
2010-09-15, 00:29:04,VALID,917.346,VALID,0,VALID,87.372,VALID,0,VALID,20.2863,VALID,354,VALID,0.915625,
2010-09-15, 00:30:04,VALID,917.383,VALID,0,VALID,88.1114,VALID,0.107441,VALID,20.1678,VALID,354,VALID,0.530078,
2010-09-15, 00:31:04,VALID,917.374,VALID,0,VALID,88.5612,VALID,0,VALID,20.0913,VALID,354,VALID,0.879687,
2010-09-15, 00:32:04,VALID,917.389,VALID,0,VALID,88.7366,VALID,0,VALID,20.0313,VALID,354,VALID,0.975,
2010-09-15, 00:33:04,VALID,917.373,VALID,0,VALID,89.1559,VALID,0,VALID,20.0523,VALID,354,VALID,0.507813,
2010-09-15, 00:34:04,VALID,917.351,VALID,0,VALID,89.133,VALID,0,VALID,20.0913,VALID,354,VALID,0.6125,
2010-09-15, 00:35:04,VALID,917.328,VALID,0,VALID,88.5917,VALID,0,VALID,20.0898,VALID,354,VALID,1.38555,
2010-09-15, 00:36:04,VALID,917.317,VALID,0,VALID,88.5765,VALID,0,VALID,20.0718,VALID,354,VALID,1.32422,
2010-09-15, 00:37:04,VALID,917.296,VALID,0,VALID,88.7671,VALID,0.107441,VALID,20.0313,VALID,354,VALID,0.995703,
2010-09-15, 00:38:04,VALID,917.308,VALID,0,VALID,88.8433,VALID,0.107441,VALID,20.0133,VALID,354,VALID,1.01328,
2010-09-15, 00:39:04,VALID,917.287,VALID,0,VALID,88.7671,VALID,0,VALID,19.9728,VALID,354,VALID,0.970703,
2010-09-15, 00:40:04,VALID,917.294,VALID,0,VALID,89.255,VALID,0.107441,VALID,20.0523,VALID,354,VALID,0.590625,
2010-09-15, 00:41:04,VALID,917.259,VALID,0,VALID,89.194,VALID,0.107441,VALID,20.1093,VALID,354,VALID,0.371875,
2010-09-15, 00:42:04,VALID,917.269,VALID,0,VALID,88.9271,VALID,0,VALID,20.1708,VALID,354,VALID,0.685547,
2010-09-15, 00:43:04,VALID,917.23,VALID,0,VALID,88.7137,VALID,0,VALID,20.1708,VALID,354,VALID,0.526172,
2010-09-15, 00:44:04,VALID,917.197,VALID,0,VALID,87.7531,VALID,0,VALID,20.1708,VALID,354,VALID,0.883594,
2010-09-15, 00:45:04,VALID,917.194,VALID,0,VALID,87.8141,VALID,0,VALID,20.2098,VALID,354,VALID,0.746094,
2010-09-15, 00:46:04,VALID,917.16,VALID,0,VALID,88.6908,VALID,0,VALID,20.2293,VALID,354,VALID,0.496094,
2010-09-15, 00:47:04,VALID,917.123,VALID,0,VALID,88.9958,VALID,0,VALID,20.2098,VALID,354,VALID,0.317187,
2010-09-15, 00:48:04,VALID,917.114,VALID,0,VALID,89.0186,VALID,0,VALID,20.1888,VALID,354,VALID,0.667578,
2010-09-15, 00:49:04,VALID,917.091,VALID,0,VALID,88.607,VALID,0,VALID,20.2098,VALID,354,VALID,0.661328,
2010-09-15, 00:50:04,VALID,917.103,VALID,0,VALID,88.7137,VALID,0,VALID,20.2278,VALID,354,VALID,0.423438,
2010-09-15, 00:51:04,VALID,917.086,VALID,0,VALID,88.2487,VALID,0,VALID,20.2879,VALID,354,VALID,0.376172,
2010-09-15, 00:52:04,VALID,917.1,VALID,0,VALID,88.1953,VALID,0,VALID,20.2684,VALID,354,VALID,0.888281,
2010-09-15, 00:53:04,VALID,917.107,VALID,0,VALID,88.1572,VALID,0,VALID,20.1903,VALID,354,VALID,1.15898,
2010-09-15, 00:54:04,VALID,917.104,VALID,0,VALID,88.0276,VALID,0,VALID,20.2098,VALID,354,VALID,1.31289,
2010-09-15, 00:55:04,VALID,917.088,VALID,0,VALID,87.7684,VALID,0,VALID,20.2083,VALID,354,VALID,0.991797,
2010-09-15, 00:56:04,VALID,917.099,VALID,0,VALID,87.8904,VALID,0,VALID,20.2293,VALID,354,VALID,0.289453,
2010-09-15, 00:57:04,VALID,917.073,VALID,0,VALID,88.4697,VALID,0.107441,VALID,20.2263,VALID,354,VALID,0.658984,
2010-09-15, 00:58:04,VALID,917.089,VALID,0,VALID,88.4774,VALID,0.107441,VALID,20.2473,VALID,354,VALID,0,
2010-09-15, 00:59:04,VALID,917.07,VALID,0,VALID,88.485,VALID,0,VALID,20.2668,VALID,354,VALID,0.455859,
2010-09-15, 01:00:04,VALID,917.07,VALID,0,VALID,88.0809,VALID,0.107441,VALID,20.2848,VALID,354,VALID,0.504687,
2010-09-15, 01:01:04,VALID,917.071,VALID,0,VALID,88.0657,VALID,0.107441,VALID,20.3043,VALID,354,VALID,0.278516,
2010-09-15, 01:02:04,VALID,917.054,VALID,0,VALID,87.8751,VALID,0,VALID,20.3043,VALID,354,VALID,0.596094,
2010-09-15, 01:03:04,VALID,917.053,VALID,0,VALID,87.9285,VALID,0,VALID,20.3238,VALID,354,VALID,0.296484,
2010-09-15, 01:04:04,VALID,917.043,VALID,0,VALID,88.0505,VALID,0,VALID,20.3238,VALID,354,VALID,0.86875,
2010-09-15, 01:05:04,VALID,917.055,VALID,0,VALID,88.1496,VALID,0.107441,VALID,20.3238,VALID,354,VALID,0.574219,
2010-09-15, 01:06:04,VALID,917.084,VALID,0,VALID,88.1724,VALID,0.107441,VALID,20.3433,VALID,354,VALID,0.621484,
2010-09-15, 01:07:04,VALID,917.086,VALID,0,VALID,88.5536,VALID,0,VALID,20.3433,VALID,333,VALID,0.571484,
2010-09-15, 01:08:04,VALID,917.039,VALID,0,VALID,88.5079,VALID,0.107441,VALID,20.3823,VALID,333,VALID,1.09609,
2010-09-15, 01:09:04,VALID,917.087,VALID,0,VALID,88.4774,VALID,0.107441,VALID,20.4408,VALID,333,VALID,0.940625,
2010-09-15, 01:10:04,VALID,917.08,VALID,0,VALID,87.8827,VALID,0,VALID,20.4603,VALID,333,VALID,0.783203,
2010-09-15, 01:11:04,VALID,917.084,VALID,0,VALID,87.9209,VALID,0.107441,VALID,20.4813,VALID,333,VALID,0.952734,
2010-09-15, 01:12:04,VALID,917.069,VALID,0,VALID,88.0733,VALID,0,VALID,20.4423,VALID,333,VALID,0.483594,
2010-09-15, 01:13:04,VALID,917.074,VALID,0,VALID,88.4697,VALID,0.107441,VALID,20.4213,VALID,333,VALID,0.433203,
2010-09-15, 01:14:04,VALID,917.089,VALID,0,VALID,89.2092,VALID,0.107441,VALID,20.4603,VALID,333,VALID,0.480078,
2010-09-15, 01:15:04,VALID,917.081,VALID,0,VALID,89.0872,VALID,0,VALID,20.5399,VALID,333,VALID,0.358203,
2010-09-15, 01:16:04,VALID,917.052,VALID,0,VALID,87.5473,VALID,0.107441,VALID,20.5578,VALID,333,VALID,0.117188,
2010-09-15, 01:17:04,VALID,917.032,VALID,0,VALID,87.6769,VALID,0,VALID,20.5009,VALID,333,VALID,0.335547,
2010-09-15, 01:18:04,VALID,917.016,VALID,0,VALID,88.6603,VALID,0.107441,VALID,20.4213,VALID,333,VALID,0.601953,
2010-09-15, 01:19:04,VALID,917.022,VALID,0,VALID,89.0567,VALID,0.107441,VALID,20.3433,VALID,333,VALID,0.529297,
2010-09-15, 01:20:04,VALID,916.989,VALID,0,VALID,89.3464,VALID,0.107441,VALID,20.3433,VALID,333,VALID,0.233984,
2010-09-15, 01:21:04,VALID,916.975,VALID,0,VALID,89.0339,VALID,0,VALID,20.3433,VALID,333,VALID,0,
2010-09-15, 01:22:04,VALID,916.953,VALID,0,VALID,88.5384,VALID,0.107441,VALID,20.3433,VALID,333,VALID,0.767969,
2010-09-15, 01:23:04,VALID,916.919,VALID,0,VALID,89.4532,VALID,0.107441,VALID,20.2848,VALID,333,VALID,0.848437,
2010-09-15, 01:24:04,VALID,916.898,VALID,0,VALID,90.1926,VALID,0.107441,VALID,20.2458,VALID,333,VALID,0.55,
2010-09-15, 01:25:04,VALID,916.896,VALID,0,VALID,89.9944,VALID,0.107441,VALID,20.2263,VALID,333,VALID,0.419531,
2010-09-15, 01:26:04,VALID,916.852,VALID,0,VALID,89.6514,VALID,0.107441,VALID,20.2848,VALID,333,VALID,0.539063,
2010-09-15, 01:27:04,VALID,916.832,VALID,0,VALID,89.2778,VALID,0,VALID,20.3269,VALID,333,VALID,0.927734,
2010-09-15, 01:28:04,VALID,916.815,VALID,0,VALID,89.9106,VALID,0,VALID,20.3074,VALID,333,VALID,1.01836,
2010-09-15, 01:29:04,VALID,916.811,VALID,0,VALID,89.8725,VALID,0,VALID,20.2684,VALID,333,VALID,0.421484,
2010-09-15, 01:30:04,VALID,916.782,VALID,0,VALID,89.9258,VALID,0,VALID,20.2489,VALID,333,VALID,0.2875,
2010-09-15, 01:31:04,VALID,916.772,VALID,0,VALID,89.7124,VALID,0,VALID,20.2083,VALID,333,VALID,0.388281,
2010-09-15, 01:32:04,VALID,916.749,VALID,0,VALID,89.7429,VALID,0,VALID,20.2083,VALID,333,VALID,0.764453,
2010-09-15, 01:33:04,VALID,916.695,VALID,0,VALID,89.7429,VALID,0,VALID,20.1693,VALID,333,VALID,0.753125,
2010-09-15, 01:34:04,VALID,916.705,VALID,0,VALID,90.3908,VALID,0,VALID,20.1303,VALID,333,VALID,0.737891,
2010-09-15, 01:35:04,VALID,916.665,VALID,0,VALID,90.5281,VALID,0,VALID,20.1108,VALID,333,VALID,0.274219,
2010-09-15, 01:36:04,VALID,916.627,VALID,0,VALID,90.3146,VALID,0,VALID,20.1108,VALID,333,VALID,0.289453,
2010-09-15, 01:37:04,VALID,916.618,VALID,0,VALID,90.5281,VALID,0,VALID,20.0928,VALID,333,VALID,0.770312,
2010-09-15, 01:38:04,VALID,916.637,VALID,0,VALID,90.8864,VALID,0,VALID,20.0928,VALID,333,VALID,0.422656,
2010-09-15, 01:39:04,VALID,916.616,VALID,0,VALID,90.9473,VALID,0,VALID,20.0913,VALID,333,VALID,0.339063,
2010-09-15, 01:40:04,VALID,916.61,VALID,0,VALID,90.9397,VALID,0,VALID,20.1303,VALID,333,VALID,0.284375,
2010-09-15, 01:41:04,VALID,916.597,VALID,0,VALID,90.772,VALID,0,VALID,20.1708,VALID,333,VALID,0.427344,
2010-09-15, 01:42:04,VALID,916.576,VALID,0,VALID,90.307,VALID,0,VALID,20.1678,VALID,333,VALID,0.309766,
2010-09-15, 01:43:04,VALID,916.559,VALID,0,VALID,90.0783,VALID,0.107441,VALID,20.1483,VALID,333,VALID,0.596094,
2010-09-15, 01:44:04,VALID,916.582,VALID,0,VALID,90.4518,VALID,0.107441,VALID,20.1693,VALID,333,VALID,0.636719,
2010-09-15, 01:45:04,VALID,916.59,VALID,0,VALID,90.8864,VALID,0.107441,VALID,20.1288,VALID,333,VALID,0.829687,
2010-09-15, 01:46:04,VALID,916.553,VALID,0,VALID,91.0922,VALID,0.107441,VALID,20.1303,VALID,334,VALID,0.896875,
2010-09-15, 01:47:04,VALID,916.542,VALID,0,VALID,90.8101,VALID,0.107441,VALID,20.1108,VALID,334,VALID,0.490625,
2010-09-15, 01:48:04,VALID,916.547,VALID,0,VALID,91.2675,VALID,0,VALID,20.0913,VALID,334,VALID,0.555859,
2010-09-15, 01:49:04,VALID,916.483,VALID,0,VALID,91.237,VALID,0.107441,VALID,20.0508,VALID,334,VALID,0.517578,
2010-09-15, 01:50:04,VALID,916.466,VALID,0,VALID,91.7173,VALID,0.107441,VALID,20.0523,VALID,334,VALID,0.667969,
2010-09-15, 01:51:04,VALID,916.457,VALID,0,VALID,92.0909,VALID,0.107441,VALID,20.0508,VALID,334,VALID,0.975391,
2010-09-15, 01:52:04,VALID,916.44,VALID,0,VALID,91.8774,VALID,0,VALID,20.1093,VALID,334,VALID,0.478125,
2010-09-15, 01:53:04,VALID,916.426,VALID,0,VALID,91.4734,VALID,0,VALID,20.1693,VALID,334,VALID,0.448438,
2010-09-15, 01:54:04,VALID,916.431,VALID,0,VALID,91.5572,VALID,0.107441,VALID,20.1678,VALID,334,VALID,0.522656,
2010-09-15, 01:55:04,VALID,916.401,VALID,0,VALID,91.5115,VALID,0.107441,VALID,20.1873,VALID,334,VALID,0.509766,
2010-09-15, 01:56:04,VALID,916.402,VALID,0,VALID,91.4505,VALID,0,VALID,20.1873,VALID,334,VALID,0.483203,
2010-09-15, 01:57:04,VALID,916.417,VALID,0,VALID,91.1608,VALID,0,VALID,20.1693,VALID,334,VALID,0.4,
2010-09-15, 01:58:04,VALID,916.407,VALID,0,VALID,91.1379,VALID,0.107441,VALID,20.1693,VALID,334,VALID,0.693359,
2010-09-15, 01:59:04,VALID,916.405,VALID,0,VALID,91.9613,VALID,0,VALID,20.1693,VALID,334,VALID,0.935547,
2010-09-15, 02:00:04,VALID,916.37,VALID,0,VALID,91.6716,VALID,0,VALID,20.1498,VALID,334,VALID,0.898047,
2010-09-15, 02:01:04,VALID,916.34,VALID,0,VALID,91.946,VALID,0,VALID,20.1303,VALID,334,VALID,0.827734,
2010-09-15, 02:02:04,VALID,916.316,VALID,0,VALID,92.007,VALID,0,VALID,20.1303,VALID,334,VALID,0.856641,
2010-09-15, 02:03:04,VALID,916.32,VALID,0,VALID,92.4568,VALID,0,VALID,20.1498,VALID,334,VALID,0.965234,
2010-09-15, 02:04:04,VALID,916.325,VALID,0,VALID,92.3196,VALID,0,VALID,20.1498,VALID,334,VALID,0.819531,
2010-09-15, 02:05:04,VALID,916.32,VALID,0,VALID,92.0451,VALID,0,VALID,20.1498,VALID,334,VALID,0.973828,
2010-09-15, 02:06:04,VALID,916.323,VALID,0,VALID,92.2433,VALID,0,VALID,20.1693,VALID,334,VALID,0.998828,
2010-09-15, 02:07:04,VALID,916.324,VALID,0,VALID,92.251,VALID,0,VALID,20.2083,VALID,334,VALID,1.04961,
2010-09-15, 02:08:04,VALID,916.298,VALID,0,VALID,92.0527,VALID,0.107441,VALID,20.2278,VALID,334,VALID,0.985937,
2010-09-15, 02:09:04,VALID,916.289,VALID,0,VALID,91.5801,VALID,0,VALID,20.2278,VALID,334,VALID,0.601563,
2010-09-15, 02:10:04,VALID,916.28,VALID,0,VALID,91.8164,VALID,0,VALID,20.2083,VALID,334,VALID,0.847266,
2010-09-15, 02:11:04,VALID,916.319,VALID,0,VALID,91.7402,VALID,0,VALID,20.1888,VALID,334,VALID,0.735937,
2010-09-15, 02:12:04,VALID,916.341,VALID,0,VALID,92.1061,VALID,0,VALID,20.1888,VALID,334,VALID,0.866797,
2010-09-15, 02:13:04,VALID,916.344,VALID,0,VALID,92.5178,VALID,0,VALID,20.2083,VALID,334,VALID,1.2043,
2010-09-15, 02:14:04,VALID,916.353,VALID,0,VALID,92.3501,VALID,0,VALID,20.2278,VALID,334,VALID,1.24414,
2010-09-15, 02:15:04,VALID,916.344,VALID,0,VALID,91.9689,VALID,0.107441,VALID,20.2668,VALID,334,VALID,0.801172,
2010-09-15, 02:16:04,VALID,916.316,VALID,0,VALID,91.7021,VALID,0,VALID,20.2863,VALID,334,VALID,0.542969,
2010-09-15, 02:17:04,VALID,916.325,VALID,0,VALID,91.9689,VALID,0,VALID,20.2863,VALID,334,VALID,0.276563,
2010-09-15, 02:18:04,VALID,916.291,VALID,0,VALID,91.8393,VALID,0,VALID,20.2863,VALID,334,VALID,0.384766,
2010-09-15, 02:19:04,VALID,916.272,VALID,0,VALID,91.4276,VALID,0,VALID,20.2863,VALID,334,VALID,0.733594,
2010-09-15, 02:20:04,VALID,916.26,VALID,0,VALID,91.1074,VALID,0,VALID,20.2863,VALID,334,VALID,0.791016,
2010-09-15, 02:21:04,VALID,916.268,VALID,0,VALID,90.9397,VALID,0,VALID,20.2863,VALID,334,VALID,0.396484,
2010-09-15, 02:22:04,VALID,916.264,VALID,0,VALID,90.2384,VALID,0,VALID,20.2668,VALID,334,VALID,0.277344,
2010-09-15, 02:23:04,VALID,916.232,VALID,0,VALID,90.3375,VALID,0,VALID,20.2863,VALID,334,VALID,0.323438,
2010-09-15, 02:24:04,VALID,916.257,VALID,0,VALID,90.1698,VALID,0,VALID,20.3058,VALID,334,VALID,0.253906,
2010-09-15, 02:25:04,VALID,916.266,VALID,0,VALID,89.659,VALID,0,VALID,20.3253,VALID,334,VALID,0.415625,
2010-09-15, 02:26:04,VALID,916.282,VALID,0,VALID,89.5751,VALID,0,VALID,20.3058,VALID,334,VALID,0.337109,
2010-09-15, 02:27:04,VALID,916.281,VALID,0,VALID,89.7505,VALID,0.107441,VALID,20.3058,VALID,334,VALID,0.0832031,
2010-09-15, 02:28:04,VALID,916.272,VALID,0,VALID,90.0021,VALID,0,VALID,20.3253,VALID,334,VALID,0,
2010-09-15, 02:29:04,VALID,916.278,VALID,0,VALID,89.842,VALID,0.107441,VALID,20.3058,VALID,334,VALID,0.0128906,
2010-09-15, 02:30:04,VALID,916.28,VALID,0,VALID,90.7339,VALID,0,VALID,20.2668,VALID,334,VALID,0.255859,
2010-09-15, 02:31:04,VALID,916.289,VALID,0,VALID,90.9473,VALID,0,VALID,20.2473,VALID,334,VALID,0.0195313,
2010-09-15, 02:32:04,VALID,916.25,VALID,0,VALID,90.5891,VALID,0.107441,VALID,20.2278,VALID,334,VALID,0,
2010-09-15, 02:33:04,VALID,916.212,VALID,0,VALID,90.8406,VALID,0,VALID,20.2068,VALID,334,VALID,0,
2010-09-15, 02:34:04,VALID,916.242,VALID,0,VALID,90.6119,VALID,0,VALID,20.2278,VALID,334,VALID,0.431641,
2010-09-15, 02:35:04,VALID,916.204,VALID,0,VALID,90.7491,VALID,0.107441,VALID,20.2278,VALID,334,VALID,0.290625,
2010-09-15, 02:36:04,VALID,916.199,VALID,0,VALID,90.5586,VALID,0,VALID,20.2473,VALID,334,VALID,0.0390625,
2010-09-15, 02:37:04,VALID,916.187,VALID,0,VALID,90.9397,VALID,0,VALID,20.2473,VALID,334,VALID,0.225781,
2010-09-15, 02:38:04,VALID,916.165,VALID,0,VALID,89.9334,VALID,0.107441,VALID,20.2278,VALID,334,VALID,0.170703,
2010-09-15, 02:39:04,VALID,916.178,VALID,0,VALID,90.9016,VALID,0,VALID,20.1498,VALID,334,VALID,0.277734,
2010-09-15, 02:40:04,VALID,916.179,VALID,0,VALID,90.894,VALID,0.107441,VALID,20.0718,VALID,334,VALID,0.134766,
2010-09-15, 02:41:04,VALID,916.176,VALID,0,VALID,91.4962,VALID,0.107441,VALID,20.0328,VALID,334,VALID,0,
2010-09-15, 02:42:04,VALID,916.172,VALID,0,VALID,91.8545,VALID,0,VALID,20.0133,VALID,334,VALID,0,
2010-09-15, 02:43:04,VALID,916.188,VALID,0,VALID,92.2891,VALID,0.107441,VALID,20.0133,VALID,334,VALID,0,
2010-09-15, 02:44:04,VALID,916.224,VALID,0,VALID,92.2433,VALID,0.107441,VALID,20.0133,VALID,334,VALID,0,
2010-09-15, 02:45:04,VALID,916.197,VALID,0,VALID,91.9003,VALID,0.107441,VALID,20.0133,VALID,334,VALID,0,
2010-09-15, 02:46:04,VALID,916.195,VALID,0,VALID,91.4276,VALID,0,VALID,19.9938,VALID,334,VALID,0,
2010-09-15, 02:47:04,VALID,916.172,VALID,0,VALID,91.885,VALID,0,VALID,19.9743,VALID,334,VALID,0.506641,
2010-09-15, 02:48:04,VALID,916.168,VALID,0,VALID,92.8532,VALID,0,VALID,19.9548,VALID,334,VALID,0.505078,
2010-09-15, 02:49:04,VALID,916.174,VALID,0,VALID,93.2115,VALID,0,VALID,19.8963,VALID,334,VALID,0.499219,
2010-09-15, 02:50:04,VALID,916.188,VALID,0,VALID,93.7375,VALID,0,VALID,19.8768,VALID,334,VALID,0.761328,
2010-09-15, 02:51:04,VALID,916.155,VALID,0,VALID,94.012,VALID,0,VALID,19.8963,VALID,334,VALID,0.504687,
2010-09-15, 02:52:04,VALID,916.168,VALID,0,VALID,93.9586,VALID,0,VALID,19.8963,VALID,334,VALID,0.232031,
2010-09-15, 02:53:04,VALID,916.172,VALID,0,VALID,93.9205,VALID,0,VALID,19.9158,VALID,334,VALID,0,
2010-09-15, 02:54:04,VALID,916.154,VALID,0,VALID,93.6689,VALID,0.107441,VALID,19.9353,VALID,334,VALID,0.0839844,
2010-09-15, 02:55:04,VALID,916.164,VALID,0,VALID,93.4783,VALID,0,VALID,19.9533,VALID,334,VALID,0.139453,
2010-09-15, 02:56:04,VALID,916.152,VALID,0,VALID,93.1581,VALID,0,VALID,19.9938,VALID,334,VALID,0,
2010-09-15, 02:57:04,VALID,916.119,VALID,0,VALID,93.0743,VALID,0.107441,VALID,20.0328,VALID,334,VALID,0,
2010-09-15, 02:58:04,VALID,916.16,VALID,0,VALID,92.9447,VALID,0.107441,VALID,20.0523,VALID,334,VALID,0,
2010-09-15, 02:59:04,VALID,916.124,VALID,0,VALID,92.7084,VALID,0.107441,VALID,20.0718,VALID,334,VALID,0,
2010-09-15, 03:00:04,VALID,916.128,VALID,0,VALID,92.777,VALID,0.107441,VALID,20.0703,VALID,334,VALID,0,
2010-09-15, 03:01:04,VALID,916.134,VALID,0,VALID,92.7693,VALID,0.107441,VALID,20.0703,VALID,334,VALID,0,
2010-09-15, 03:02:04,VALID,916.139,VALID,0,VALID,92.4034,VALID,0.107441,VALID,20.0913,VALID,334,VALID,0,
2010-09-15, 03:03:04,VALID,916.132,VALID,0,VALID,92.0985,VALID,0.107441,VALID,20.0718,VALID,334,VALID,0.635938,
2010-09-15, 03:04:04,VALID,916.101,VALID,0,VALID,92.1976,VALID,0,VALID,20.0328,VALID,334,VALID,0.748828,
2010-09-15, 03:05:04,VALID,916.113,VALID,0,VALID,92.0604,VALID,0,VALID,19.9548,VALID,334,VALID,0.804688,
2010-09-15, 03:06:04,VALID,916.111,VALID,0,VALID,92.0223,VALID,0.107441,VALID,19.8363,VALID,334,VALID,0.86875,
2010-09-15, 03:07:04,VALID,916.116,VALID,0,VALID,92.6093,VALID,0.107441,VALID,19.7793,VALID,334,VALID,0.744531,
2010-09-15, 03:08:04,VALID,916.14,VALID,0,VALID,93.2115,VALID,0.107441,VALID,19.7403,VALID,334,VALID,0.745313,
2010-09-15, 03:09:04,VALID,916.117,VALID,0,VALID,93.4936,VALID,0.107441,VALID,19.6998,VALID,334,VALID,0.508594,
2010-09-15, 03:10:04,VALID,916.125,VALID,0,VALID,93.303,VALID,0.107441,VALID,19.6623,VALID,334,VALID,0.945703,
2010-09-15, 03:11:04,VALID,916.092,VALID,0,VALID,93.7756,VALID,0,VALID,19.6428,VALID,334,VALID,0.892969,
2010-09-15, 03:12:04,VALID,916.098,VALID,0,VALID,93.9967,VALID,0.107441,VALID,19.5843,VALID,334,VALID,0.735156,
2010-09-15, 03:13:04,VALID,916.084,VALID,0,VALID,94.1568,VALID,0.107441,VALID,19.5843,VALID,335,VALID,0.360156,
2010-09-15, 03:14:04,VALID,916.071,VALID,0,VALID,94.2178,VALID,0,VALID,19.5843,VALID,334,VALID,0.694922,
2010-09-15, 03:15:04,VALID,916.084,VALID,0,VALID,94.1492,VALID,0,VALID,19.5633,VALID,334,VALID,0.5875,
2010-09-15, 03:16:04,VALID,916.07,VALID,0,VALID,94.0425,VALID,0.107441,VALID,19.5438,VALID,334,VALID,0.994141,
2010-09-15, 03:17:04,VALID,916.049,VALID,0,VALID,94.3321,VALID,0.107441,VALID,19.5648,VALID,335,VALID,1.16211,
2010-09-15, 03:18:04,VALID,916.059,VALID,0,VALID,94.4617,VALID,0,VALID,19.5453,VALID,334,VALID,0.928125,
2010-09-15, 03:19:04,VALID,916.038,VALID,0,VALID,94.5913,VALID,0.107441,VALID,19.5453,VALID,335,VALID,0.765234,
2010-09-15, 03:20:04,VALID,916.05,VALID,0,VALID,94.6295,VALID,0,VALID,19.5453,VALID,128,VALID,1.14023,
2010-09-15, 03:21:04,VALID,916.039,VALID,0,VALID,94.6676,VALID,0.107441,VALID,19.5453,VALID,128,VALID,0.673437,
2010-09-15, 03:22:04,VALID,916.021,VALID,0,VALID,94.599,VALID,0,VALID,19.5063,VALID,128,VALID,0.397266,
2010-09-15, 03:23:04,VALID,916.034,VALID,0,VALID,94.5685,VALID,0.107441,VALID,19.5258,VALID,128,VALID,0.55,
2010-09-15, 03:24:04,VALID,916.03,VALID,0,VALID,94.5532,VALID,0.107441,VALID,19.5258,VALID,128,VALID,0.581641,
2010-09-15, 03:25:04,VALID,916.063,VALID,0,VALID,94.5609,VALID,0,VALID,19.5048,VALID,128,VALID,0.276172,
2010-09-15, 03:26:04,VALID,916.066,VALID,0,VALID,94.5913,VALID,0.107441,VALID,19.5468,VALID,128,VALID,0.306641,
2010-09-15, 03:27:04,VALID,916.066,VALID,0,VALID,94.6447,VALID,0.107441,VALID,19.5063,VALID,128,VALID,0.466406,
2010-09-15, 03:28:04,VALID,916.077,VALID,0,VALID,94.6371,VALID,0,VALID,19.5063,VALID,128,VALID,0.720312,
2010-09-15, 03:29:04,VALID,916.094,VALID,0,VALID,94.7438,VALID,0.107441,VALID,19.5258,VALID,128,VALID,0.917578,
2010-09-15, 03:30:04,VALID,916.127,VALID,0,VALID,94.8353,VALID,0.107441,VALID,19.5063,VALID,128,VALID,0.726953,
2010-09-15, 03:31:04,VALID,916.134,VALID,0,VALID,94.9344,VALID,0,VALID,19.5258,VALID,128,VALID,0.752734,
2010-09-15, 03:32:04,VALID,916.148,VALID,0,VALID,94.9801,VALID,0.107441,VALID,19.5453,VALID,128,VALID,1.00703,
2010-09-15, 03:33:04,VALID,916.173,VALID,0,VALID,94.9801,VALID,0,VALID,19.5648,VALID,128,VALID,0.539063,
2010-09-15, 03:34:04,VALID,916.186,VALID,0,VALID,95.0106,VALID,0.107441,VALID,19.5843,VALID,128,VALID,0.858203,
2010-09-15, 03:35:04,VALID,916.239,VALID,0,VALID,94.8963,VALID,0,VALID,19.6038,VALID,128,VALID,0.797656,
2010-09-15, 03:36:04,VALID,916.238,VALID,0,VALID,94.8353,VALID,0.107441,VALID,19.6233,VALID,128,VALID,0.666406,
2010-09-15, 03:37:04,VALID,916.243,VALID,0,VALID,94.7819,VALID,0,VALID,19.6233,VALID,128,VALID,0.991797,
2010-09-15, 03:38:04,VALID,916.264,VALID,0,VALID,94.7362,VALID,0.107441,VALID,19.6023,VALID,128,VALID,0.783984,
2010-09-15, 03:39:04,VALID,916.255,VALID,0,VALID,94.7819,VALID,0.107441,VALID,19.6233,VALID,128,VALID,1.07227,